User: anonymous   Login
Location: Innerarity Island Observatory
(30.3139°N, 87.4867°W)
Time: 20:32:28
(UTC-05:00)
Language:

OPAL - Orbit

View from above orbital plane
View from above orbital plane
View from above satellite
View from above satellite

Ground track
Ground track

The orbit data is extracted from the following two-line orbital elements,

1 26063U 00004C   15245.87285994 +.00000004 +00000-0 +21460-4 0  9991
2 26063 100.2054 118.8404 0036517 352.0219 008.0377 14.36559165817377
Epoch (UTC): 02 September 2015 20:56:55
Eccentricity: 0.0036517
inclination: 100.2054°
perigee height: 744 km
apogee height: 796 km
right ascension of ascending node: 118.8404°
argument of perigee: 352.0219°
revolutions per day: 14.36559165
mean anomaly at epoch: 8.0377°
orbit number at epoch: 81737

The dashed part of the orbit path shows where the satellite is in the earth's shadow,  

DLR